XATCOBEO 1 00002U 12006B 12044.46627998 .00000000 00000-0 31967-3 0 16 2 00002 69.4857 238.7662 0796847 45.0971 191.9357 14.06476807 13 ESTAR 1 00003U 12006C 12044.46627998 .00000000 00000-0 28115-3 0 18 2 00003 69.4857 238.7662 0796159 45.0883 191.9444 14.06339990 10 GOLIAT 1 00004U 12006D 12044.46627998 .00000000 00000-0 26912-3 0 12 2 00004 69.4857 238.7662 0795841 45.0842 191.9484 14.06276813 11 ROBUSTA 1 00005U 12006E 12044.46627998 .00000000 00000-0 31201-3 0 10 2 00005 69.4856 238.7662 0796758 45.0912 191.9422 14.06456720 16 MASAT 1 00006U 12006F 12044.46627998 .00000000 00000-0 28115-3 0 11 2 00006 69.4856 238.7662 0796254 45.0851 191.9481 14.06356736 11 PW-SAT 1 00007U 12006G 12044.46627998 .00000000 00000-0 26588-3 0 14 2 00007 69.4856 238.7662 0796068 45.0829 191.9503 14.06319864 16 UNICUBESAT 1 00008U 12006H 12044.46627998 .00000000 00000-0 31967-3 0 12 2 00008 69.4856 238.7662 0796936 45.0885 191.9454 14.06489697 10 ALMASat-1 1 00009U 12006I 12044.46627998 .00000000 00000-0 12728-3 0 17 2 00009 69.4857 238.7662 0792733 45.0462 191.9858 14.05660435 12